sat.trackr.live / text

‹ back to catalog

STARLINK-33629

NORAD 63388 · 2025-063AB

PAYLOAD ACTIVE UNKNOWN

§ Identity

Operator
Country
US
Launch date
2025-03-26
Launch site
AFWTR
Launch vehicle
Mass (kg)
RCS (m²)

Purposes: comms

External: N2YO · Heavens-Above · Gunter

§ Orbital elements

Epoch: 2026-09-20T06:31:33.966624Z

Period
93.85 min
Inclination
53.1584°
Eccentricity
0.0001403
Mean motion
15.34401068 rev/d
Perigee alt
461.7 km
Apogee alt
463.7 km
Semi-major
6,840.8 km
B*
4.2517e-4
RAAN
222.7728°
Arg perigee
112.1568°
Mean anomaly
247.9583°
Rev number
8,463

§ Raw data

STARLINK-336291 63388U 25063AB  26263.27192091  .00014016  00000+0  42517-3 0  99972 63388  53.1584 222.7728 0001403 112.1568 247.9583 15.34401068 84639

JSON: /api/v1/satellites/63388 · /tle

For live sub-satellite position, see the globe view (requires WebGL).

§ Visibility from observer

Set your observer location to see the next 7 days of passes ≥ 10°. The values pass through the URL so the page stays shareable.

No JS? Fill the form by hand. The geolocation button needs JavaScript.